Flag for U.S.A. Weather past 2 weeks in Lincoln, Nebraska, U.S.A.

Now
67 °F

Overcast.


Feels Like: 67 °F
Forecast: 55 / 80 °F
Wind: 9 mph from Southeast

Location: Lincoln Municipal Airport

Current Time: Sep 16, 2014 at 9:31:53 PM

Latest Report: Sep 16, 2014 at 8:54 PM


Visibility: 10 mi

Pressure: 30.01 "Hg

Humidity: 57%

Dew point: 51 °F

Location of LincolnLocation

Historic Weather in Lincoln — Graph

°F

Lincoln temperature yesterday

Maximum temperature yesterday: 65 °F (at 1:54 PM)
Minimum temperature yesterday: 45 °F (at 11:54 PM)
Average temperature yesterday: 59 °F

Past Weeks' High & Low Weather Summary

 TemperatureHumidityPressure
High92 °F (Sep 4, 1:54 PM)97% (Sep 6, 12:54 AM)30.48 "Hg (Sep 6, 12:54 AM)
Low36 °F (Sep 13, 5:54 AM)37% (Sep 2, 3:54 PM)29.55 "Hg (Sep 9, 6:54 PM)
Average63 °F74%30.06 "Hg
* Reported Sep 1 7:54 PM — Sep 16 7:54 PM, Lincoln, Weather by CustomWeather, © 2014

Note: Actual official high and low records may vary slightly from our data, if they occured in-between our weather recording intervals... More about our weather records

Advertising

Lincoln weather history for previous 24 hours

 ConditionsComfort  
Time TempWeatherWind HumidityBarometerVisibility
7:54 PM
Sep 16
66 °FOvercast.7 mph61%30.01 "Hg10 mi
6:54 PM69 °FOvercast.6 mph49%30.02 "Hg10 mi
5:54 PM70 °FOvercast.10 mph47%30.02 "Hg10 mi
4:54 PM72 °FSunny.9 mph43%30.03 "Hg10 mi
3:54 PM71 °FSunny.8 mph41%30.06 "Hg10 mi
2:54 PM70 °FSunny.9 mph44%30.09 "Hg10 mi
1:54 PM68 °FSunny.9 mph45%30.12 "Hg10 mi
12:54 PM66 °FSunny.8 mph49%30.16 "Hg10 mi
11:54 AM63 °FSunny.6 mph56%30.21 "Hg10 mi
10:54 AM60 °FSunny.12 mph62%30.22 "Hg10 mi
9:54 AM55 °FSunny.7 mph77%30.24 "Hg10 mi
8:54 AM49 °FSunny.No wind84%30.25 "Hg8 mi
7:54 AM42 °FClear.No wind92%30.25 "Hg9 mi
6:54 AM41 °FClear.No wind93%30.25 "Hg10 mi
5:54 AM40 °FClear.No wind93%30.26 "Hg10 mi
4:54 AM42 °FClear.No wind92%30.27 "Hg9 mi
3:54 AM42 °FClear.No wind92%30.28 "Hg9 mi
2:54 AM41 °FClear.No wind93%30.29 "Hg10 mi
1:54 AM43 °FClear.No wind93%30.29 "Hg10 mi
12:54 AM43 °FClear.No wind93%30.28 "Hg10 mi
11:54 PM
Sep 15
45 °FClear.No wind90%30.28 "Hg10 mi
10:54 PM51 °FClear.3 mph77%30.28 "Hg10 mi
9:54 PM52 °FClear.3 mph77%30.27 "Hg10 mi
Weather by CustomWeather, © 2014

See weather overviewHow to use our weather pages